Regional Weather Roundup
Issued by NWS Kansas City/Pleasant Hill, MO

Home | Current Version | Previous Version | Graphics & Text | Print | Product List | Glossary Off
Versions: 1 2 3 4 5 6 7 8 9 10 11 12 13 14 15 16 17 18 19 20 21 22 23 24 25 26 27

000
ASUS43 KEAX 162210
RWREAX

WEATHER ROUNDUP FOR EASTERN KANSAS AND NORTHWEST MISSOURI
NATIONAL WEATHER SERVICE KANSAS CITY/PLEASANT HILL MO
400 PM CST MON JAN 16 2017

KSZ040-057-103>105-MOZ028-029-037-043-162300-
...KANSAS CITY METROPOLITAN AREA...

CITY           SKY/WX    TMP DP  RH WIND       PRES   REMARKS
K.C. INTL      CLOUDY    47  47 100 SW10      29.83R
K.C. DOWNTOWN  CLOUDY    50  45  83 SW10      29.84R
LEES SUMMIT    LGT RAIN  49  46  90 SW12      29.83S
OLATHE - IXD   LGT RAIN  45  43  93 SW12      29.85R
OLATHE - OJC   LGT RAIN  45  44  97 SW10G18   29.84R
LAWRENCE       LGT RAIN  44  42  93 S10       29.85R FOG

$$

MOZ001>008-011>017-020>025-030>033-038>040-044>046-053-054-162300-
...NORTHERN AND CENTRAL MISSOURI...

CITY           SKY/WX    TMP DP  RH WIND       PRES   REMARKS
ST. JOSEPH     LGT RAIN  43  43 100 CALM      29.83S
MOSBY          CLOUDY    50  50 100 CALM      29.83S
WARRENSBURG    CLOUDY    54  46  76 SW7       29.83F
WHITEMAN AFB   PTSUNNY   58  55  89 W8        29.82R
CLINTON        PTSUNNY   57  50  77 SW8       29.84R
SEDALIA        MOSUNNY   61  54  77 S10       29.84S
WARSAW         NOT AVBL
CHILLICOTHE      N/A     46  45  96 CALM      29.85F
KIRKSVILLE     FOG       40  40 100 E8        29.87S VSB<1/4 WCI  34

$$

MOZ041-047>049-056>058-063>065-088>090-097-162300-
...EASTERN AND SOUTHERN MISSOURI...

CITY           SKY/WX    TMP DP  RH WIND       PRES   REMARKS
ST. LOUIS INTL TSTM      54  51  90 SE10      29.92S FOG
SPIRIT OF STL  LGT RAIN  53  52  96 CALM      29.91F FOG
COLUMBIA       CLOUDY    55  54  96 SE7       29.86F FOG
JEFFERSON CITY CLOUDY    57  55  93 E6        29.87S
ROLLA          CLOUDY    55  54  96 S13       29.88R
OSAGE BEACH    CLOUDY    59  54  83 S9G16     29.87S
SPRINGFIELD    MOSUNNY   61  55  81 S13       29.84S
BRANSON        PTSUNNY   59  59 100 S5        29.88F
JOPLIN         PTSUNNY   56  48  74 S10       29.86S
WEST PLAINS    CLOUDY    56  56 100 S8        29.91F FOG

$$

IAZ060-094-KSZ022-034>040-054-083-096-NEZ052-066-093-162300-
...KANSAS...SOUTHEAST NEBRASKA AND IOWA...

CITY           SKY/WX    TMP DP  RH WIND       PRES   REMARKS
TOPEKA         LGT RAIN  44  40  85 SW12      29.85R
MANHATTAN      CLOUDY    37  35  92 NW5       29.86R FOG     WCI  33
EMPORIA        CLOUDY    39  38  96 SW10      29.87R FOG     WCI  32
CHANUTE        LGT RAIN  41  39  93 W15       29.90R WCI  33
WICHITA        CLOUDY    38  36  92 NW14      29.89R WCI  30
OMAHA          CLOUDY    35  31  85 N10       29.90R FOG     WCI  27
LINCOLN        CLOUDY    33  32  96 N15       29.90R WCI  23
FALLS CITY     FOG       36  36 100 NW6       29.84R VSB 1/4 WCI  31
LAMONI         FOG       37  37 100 E5        29.84S VSB 1/4 WCI  33
DES MOINES     DRZL/FOG  34  33  96 NE5       29.89S VSB 3/4 WCI  30

$$





USA.gov is the U.S. government's official web portal to all federal, state and local government web resources and services.